Location: Kandel
(49.0828°N, 8.1972°E)
Time: 02:36:58
(UTC+00:00)

Daily predictions for brighter satellites

Satellite Brightness Start Highest point End
(mag) Time Altitude Azimuth Time Altitude Azimuth Time Altitude Azimuth
ADEOS II 4.5 00:01:53 10° ENE 00:03:42 12° E 00:05:30 10° ESE
NOSS 2-2 (D) 4.2 00:01:12 10° NW 00:06:09 80° SW 00:11:38 17° SE
Cosmos 1553 Rocket 4.1 00:03:21 32° SSW 00:06:18 67° WNW 00:12:30 10° N
Cosmos 1461 3.5 00:02:32 10° NW 00:06:25 38° WSW 00:06:31 38° SW
Gblst 52 Del rocket 4.3 00:01:10 10° W 00:07:21 78° NNW 00:12:57 10° ENE
Cosmos 1867 3.5 00:05:01 32° SW 00:07:40 86° NW 00:13:12 10° NE
Cosmos 2221 Rocket 3.9 00:06:47 38° SW 00:08:10 55° WNW 00:12:31 10° N
Cosmos 1674 Rocket 3.5 00:06:55 46° SSW 00:08:10 78° W 00:12:30 10° N
Cosmos 2298 Rocket 4.1 00:07:41 37° S 00:09:45 68° ESE 00:15:03 10° NNE
Cosmos 1674 3.4 00:10:51 36° WSW 00:11:38 42° WNW 00:15:14 10° N
USA 306 3.3 00:11:52 39° SSE 00:12:02 40° SE 00:15:57 10° ENE
Cosmos 1238 Rocket 3.1 00:09:37 10° NNW 00:12:06 34° W 00:12:06 34° W
Thor Agena Rocket 4.3 00:08:02 10° NNE 00:13:07 44° E 00:15:34 27° SSE
ATLAS CENTAUR R/B 3.3 00:10:49 10° WNW 00:13:59 19° WSW 00:13:59 19° WSW
USA 307 3.5 00:15:20 37° SE 00:15:31 37° SE 00:19:23 10° ENE
SL-16 R/B 3.9 00:16:08 15° SE 00:19:01 21° E 00:23:10 10° NE
ERBS 3.6 00:22:52 24° ESE 00:22:52 24° ESE 00:24:47 10° ENE
Cosmos 2322 Rocket 4.5 00:18:46 10° W 00:22:39 19° NW 00:26:32 10° N
ATLAS 5 CENTAUR R/B 3.1 00:10:37 10° NW 00:22:47 53° WSW 00:24:40 34° S
Cosmos 1980 3.8 00:20:38 33° S 00:23:07 65° ESE 00:28:44 10° NNE
CZ-4C R/B 3.3 00:16:23 10° NW 00:23:21 48° WSW 00:27:53 26° S
Cosmos 1455 Rocket 3.8 00:19:16 10° N 00:23:37 48° ENE 00:26:09 23° SE
Cosmos 1378 Rocket 3.8 00:22:19 38° SW 00:23:47 58° WNW 00:28:10 10° N
Cosmos 2333 Rocket 3.4 00:19:42 14° WSW 00:24:01 36° NW 00:29:15 10° NNE
USA 215 3.8 00:19:39 10° ENE 00:26:04 59° NNW 00:32:27 10° W
Cosmos 332 Rocket 4.3 00:28:23 31° SSE 00:30:16 49° ESE 00:34:54 10° NNE
NOSS 0 Rocket 3.9 00:29:23 30° SSW 00:32:43 90° SE 00:39:01 10° NNE
USA 32 4.0 00:35:15 32° S 00:37:44 86° W 00:43:02 10° N
Meteor 2-10 Rocket 3.6 00:32:20 10° NNW 00:38:04 90° W 00:41:17 26° S
Cosmos 1745 Rocket 4.4 00:35:41 10° NNW 00:41:36 46° W 00:44:35 27° SW
Cosmos 1975 Rocket 3.4 00:39:39 30° SSE 00:41:38 59° E 00:46:02 10° NNE
Cosmos 839 Rocket 4.3 00:37:28 10° NW 00:43:42 58° WSW 00:49:12 18° SSE
ADEOS Rocket 4.4 00:42:18 16° WSW 00:44:22 19° W 00:48:28 10° NW
USA 308 2.9 00:44:46 40° SSW 00:46:01 58° SE 00:50:07 10° ENE
Cosmos 2219 Rocket 3.6 00:42:56 12° WSW 00:47:21 32° NW 00:52:20 10° NNE
Cosmos 1025 Rocket 3.4 00:47:03 28° SSE 00:49:06 56° E 00:53:19 10° NNE
Cosmos 1455 3.7 00:46:21 10° N 00:49:43 31° ENE 00:52:38 12° SE
Cosmos 1269 Rocket 4.1 00:45:12 10° NNW 00:50:31 76° ENE 00:55:07 14° SSE
GP-B 3.2 00:51:48 10° N 00:56:13 64° W 00:58:07 32° SSW
CZ-2D R/B 2.5 00:53:47 10° NNE 00:59:06 57° E 01:02:28 22° S
Meteor 2-5 Rocket 3.9 00:55:38 24° S 00:59:13 69° E 01:04:52 10° NNE
Cosmos 1300 3.4 00:57:03 10° NNW 01:00:34 37° W 01:01:27 32° SW
Lacrosse 5 2.7 00:58:31 26° S 01:00:35 37° SE 01:05:17 10° ENE
USA 267 4.2 01:02:14 23° SW 01:03:17 23° SW 01:08:22 10° WNW
SL-14 R/B 4.3 01:02:27 25° WSW 01:03:49 33° WNW 01:07:20 10° N
Cosmos 371 Rocket 4.0 01:06:03 22° WSW 01:08:47 44° WNW 01:13:27 10° NNE
USA 305 2.8 01:07:09 26° WSW 01:09:27 89° SE 01:13:38 10° ENE
Cosmos 1544 Rocket 3.7 01:05:35 10° N 01:10:02 75° E 01:13:09 19° SSE
USA 229 4.5 01:03:57 10° NW 01:10:38 37° WSW 01:15:15 20° S
BREEZE-M DEB (TANK) 4.3 00:56:57 10° WSW 01:12:36 81° SSE 01:16:46 10° ENE
Cosmos 2237 Rocket 2.5 01:11:28 22° SW 01:15:06 60° WNW 01:20:47 10° NNE
COSMOS 2428 4.2 01:12:17 10° WSW 01:17:09 28° NW 01:22:02 10° NNE
AQUA 4.3 01:13:45 10° NNE 01:18:27 54° E 01:21:49 18° S
Cosmos 304 Rocket 4.2 01:17:17 24° SW 01:20:02 54° WNW 01:24:48 10° NNE
SL-16 R/B 2.5 01:14:42 12° SSE 01:20:29 84° WSW 01:26:47 10° NNW
Helios 1A 3.8 01:17:29 10° SE 01:21:33 50° ENE 01:25:39 10° N
SAR-Lupe-2 4.2 01:18:34 10° NNE 01:22:04 49° E 01:24:09 21° SSE
Lacrosse 5 rocket 2.4 01:21:54 23° S 01:23:25 30° SE 01:26:59 10° ENE
Cosmos 1953 4.3 01:23:20 10° NW 01:25:30 14° W 01:26:26 13° W
SME Rocket 3.9 01:24:35 26° SW 01:26:20 38° W 01:31:03 10° NNW
Cosmos 2074 Rocket 4.0 01:21:54 10° N 01:28:14 84° W 01:33:59 13° S
Resurs 1-4 Rocket 2.1 01:23:02 10° NNE 01:28:19 82° WNW 01:31:57 21° SSW
Cosmos 1943 Rocket 2.2 01:27:29 10° NNW 01:33:08 66° WSW 01:38:43 10° SSE
Cosmos 2297 3.7 01:27:21 10° NNW 01:33:08 82° WSW 01:38:52 10° SSE
Cosmos 1703 4.4 01:35:52 12° SSE 01:39:17 40° E 01:42:59 10° NNE
CRYOSAT 2 4.3 01:38:46 15° S 01:42:53 82° W 01:47:48 10° N
Cosmos 2184 Rocket 4.0 01:36:52 10° NNW 01:43:05 69° W 01:48:45 12° S
Cosmos 2278 Rocket 3.8 01:40:06 10° WNW 01:43:38 17° W 01:45:23 15° WSW
ADEOS II 2.2 01:38:59 10° NNE 01:44:16 77° ESE 01:48:40 15° S
IDEFIX/ARIANE 42P 2.9 01:39:54 10° NNE 01:45:10 66° ESE 01:49:52 13° S
Cosmos 1610 Rocket 4.5 01:40:44 10° N 01:46:56 88° E 01:53:04 10° S
USA 306 3.3 01:47:34 11° W 01:51:31 61° NNW 01:55:40 10° ENE
Cosmos 2084 Rocket 3.4 01:49:15 19° WSW 01:51:51 64° NW 01:55:38 10° NE
Cosmos 292 Rocket 4.2 01:48:10 15° S 01:52:05 59° ESE 01:56:49 10° NNE
USA 307 3.2 01:51:04 11° WSW 01:54:59 64° NNW 01:59:10 10° ENE
NPP 3.9 01:50:59 10° N 01:56:18 61° WNW 02:00:36 16° SW
ERBS 3.0 01:54:54 13° W 01:57:20 41° NNW 02:00:18 10° NE
Cosmos 2369 Rocket 2.3 01:52:48 10° NNW 01:58:27 83° ENE 02:04:03 10° SSE
Gblst 52 Del rocket 4.4 01:53:34 10° WNW 01:59:23 74° N 02:04:52 10° E
USA-17 4.5 01:56:28 10° NW 01:59:45 69° SW 02:03:58 10° SSE
CZ-4 R/B 4.5 01:56:52 10° N 02:01:14 41° WNW 02:04:41 15° SW
Cosmos 614 Rocket 4.0 01:56:52 10° NNW 02:02:00 62° WSW 02:07:08 10° S
Cosmos 2228 3.1 01:57:36 10° N 02:02:01 83° E 02:06:21 10° S
IRS-1D 4.2 01:56:52 10° NNE 02:02:09 57° E 02:07:20 10° S
EO 1 Del DPAF 3.0 01:58:58 10° NNE 02:02:30 88° WNW 02:05:16 16° SSW
SL-16 R/B 2.3 01:58:00 16° SW 02:02:33 72° WNW 02:08:16 10° NNE
Cosmos 2251 Rocket 3.6 01:58:45 10° NNW 02:04:03 88° ENE 02:09:21 10° SSE
Meteor 1-28 Rocket 3.5 02:03:36 13° S 02:06:42 48° W 02:10:20 10° NNW
Cosmos 1656 Rocket 3.8 02:02:24 10° NNW 02:07:51 79° ENE 02:13:16 10° SSE
USA 215 4.4 02:02:21 10° ENE 02:08:30 45° N 02:14:38 10° WNW
COSMOS 2455 3.0 02:04:48 14° SSW 02:10:05 75° ESE 02:16:07 10° NE
Cosmos 1536 Rocket 3.7 02:08:03 15° SSW 02:11:40 59° WNW 02:16:01 10° N
Nadezhda 1 Rocket 4.2 02:15:05 11° SSW 02:21:10 63° WNW 02:27:25 10° N
MSX 3.9 02:16:26 10° NNE 02:22:13 84° WNW 02:28:00 10° SSW
Cosmos 1455 3.6 02:22:11 10° NW 02:25:00 21° W 02:27:23 12° SW
USA 308 3.6 02:21:38 10° W 02:25:43 51° NNW 02:29:50 10° ENE
Cosmos 1603 4.5 02:20:45 10° S 02:26:08 49° ESE 02:31:35 10° NE
MOS 1 Rocket 4.2 02:23:22 12° SSW 02:26:35 26° W 02:30:15 10° NW
Cosmos 1271 Rocket 3.5 02:25:32 10° NNW 02:29:00 33° W 02:32:29 10° SSW
Cosmos 1606 Rocket 3.5 02:28:46 10° NNW 02:33:11 71° W 02:37:32 10° S
ALOS 3.6 02:32:08 10° NNE 02:36:32 39° E 02:40:53 10° SSE
CZ-2C R/B 3.7 02:33:49 10° NNE 02:38:42 42° E 02:43:25 10° SSE
CZ-2D R/B 3.5 02:34:25 10° N 02:38:47 26° WNW 02:43:06 10° WSW
Lacrosse 5 2.3 02:38:20 10° WSW 02:43:25 62° NNW 02:48:30 10° NE
Helios 1B rocket 2.7 02:39:22 10° NNE 02:43:26 70° ESE 02:47:29 10° S
Cosmos 2366 rocket 4.1 02:39:13 10° N 02:45:24 89° E 02:51:36 10° S
Cosmos 2341 Rocket 4.1 02:39:34 10° NNW 02:45:54 67° W 02:52:13 10° S
USA 305 4.0 02:45:19 10° W 02:49:19 43° N 02:53:20 10° ENE
Meteor 2-1 Rocket 4.4 02:44:49 10° NNW 02:50:30 58° W 02:56:01 10° S
BREEZE-M DEB (TANK) 3.5 02:47:58 10° SW 02:51:49 30° SSE 02:53:56 10° E
Cosmos 407 Rocket 3.6 02:46:41 10° NNW 02:51:58 66° WSW 02:57:11 10° S
SL-8 Rocket 4.1 02:46:21 10° NNW 02:52:39 71° W 02:58:55 10° S
Cosmos 1943 3.3 02:51:49 10° SSW 02:57:32 89° ESE 03:03:16 10° NNE
